Regional Weather Roundup
Issued by NWS

Home | Current Version | Previous Version | Graphics & Text | Print | Product List | Glossary On
Versions: 1 2 3 4 5 6 7 8 9 10 11 12 13 14 15 16 17 18 19 20 21 22 23 24 25 26 27 28 29 30 31 32 33 34 35 36 37 38 39 40 41 42 43 44 45 46 47 48 49 50
000
ASUS43 KLMK 292102
RWRKY
KENTUCKY REGIONAL WEATHER ROUNDUP
NATIONAL WEATHER SERVICE LOUISVILLE KY
500 PM EDT SUN MAY 29 2016

NOTE "FAIR" INDICATES FEW OR NO CLOUDS BELOW 12,000 FEET
WITH NO SIGNIFICANT WEATHER AND/OR OBSTRUCTIONS TO VISIBILITY.

KYZ001>023-026-027-061>063-070>075-292200-
WESTERN AND SOUTH CENTRAL KENTUCKY

CITY           SKY/WX    TMP DP  RH WIND       PRES   REMARKS
PADUCAH        MOSUNNY   87  64  46 W7        30.05F
HENDERSON      PTSUNNY   86  66  51 SW13      30.03S
OWENSBORO      MOSUNNY   85  68  56 SW8       30.03F
HOPKINSVILLE   NOT AVBL
BOWLING GREEN  MOSUNNY   87  66  49 SW9       30.05F
GLASGOW        NOT AVBL
$$

KYZ024-025-028>034-038-045-046-053-292200-
NORTH CENTRAL KENTUCKY

CITY           SKY/WX    TMP DP  RH WIND       PRES   REMARKS
LOUISVILLE/SDF PTSUNNY   85  64  49 SW7       30.02F
LOUISVILLE/LOU MOSUNNY   86  64  47 SW8       30.03F
FORT KNOX      SUNNY     86  67  52 SW9       30.03F
$$

KYZ035>037-039>044-047>052-055>060-089>105-292200-
NORTHEAST KENTUCKY

CITY           SKY/WX    TMP DP  RH WIND       PRES   REMARKS
LEXINGTON      MOSUNNY   86  64  47 W8        30.06F
COVINGTON      MOSUNNY   86  66  51 S10       30.03F
FRANKFORT      MOSUNNY   85  64  49 SW8       30.03F
$$

KYZ054-064>069-076>088-106>120-292200-
SOUTHEAST KENTUCKY

CITY           SKY/WX    TMP DP  RH WIND       PRES   REMARKS
JACKSON        CLOUDY    81  66  60 CALM      30.10F
LONDON         PTSUNNY   84  62  47 CALM      30.08F
SOMERSET       NOT AVBL
MIDDLESBORO    NOT AVBL
MONTICELLO     PTCLDY    84  65  52 N13       30.09F
$$





USA.gov is the U.S. government's official web portal to all federal, state and local government web resources and services.